HA9HP Weather Reports


Display with metric or nautical units.
time (UTC)temp
F
wind
direction
speed
MPH
gust
MPH
rain 1hr
in
rain 24hr
in
rain mn
in
humidity
%
barometer
mb
20260507220036 57 215 0.0 1.0 0.04 0.20 0.00 90 1015.0
20260507214529 57 215 0.0 2.0 0.07 0.19 0.19 90 1015.0
20260507213029 57 262 0.0 2.0 0.07 0.18 0.18 89 1015.0
20260507211528 57 250 1.0 2.0 0.07 0.18 0.18 88 1014.8
20260507210030 58 259 0.0 2.0 0.05 0.15 0.15 87 1014.6
20260507204531 58 206 0.0 0.0 0.03 0.12 0.12 86 1014.5
20260507203030 58 183 0.0 0.0 0.02 0.11 0.11 85 1014.5
20260507201525 59 169 0.0 2.0 0.02 0.11 0.11 84 1014.5
20260507200031 59 222 0.0 2.0 0.01 0.10 0.10 82 1014.3
20260507194535 60 234 0.0 2.0 0.00 0.09 0.09 79 1014.3
20260507193029 60 264 0.0 2.0 0.00 0.08 0.08 74 1014.1
20260507191530 61 260 0.0 2.0 0.00 0.08 0.08 72 1013.9
20260507190040 62 263 2.0 7.0 0.00 0.08 0.08 70 1013.5
20260507184532 62 219 0.0 2.0 0.00 0.08 0.08 72 1013.4
20260507183030 62 192 1.0 3.0 0.00 0.08 0.08 78 1013.2
20260507181528 63 197 1.0 5.0 0.00 0.08 0.08 80 1013.1
20260507180026 63 169 2.0 6.0 0.00 0.08 0.08 78 1013.0
20260507174513 64 204 3.0 6.0 0.00 0.08 0.08 75 1012.8
20260507173034 64 192 2.0 9.0 0.00 0.08 0.08 74 1012.8
20260507171521 64 148 4.0 9.0 0.00 0.08 0.08 73 1012.7
20260507170024 64 129 2.0 6.0 0.00 0.08 0.08 74 1012.6
20260507164536 64 210 1.0 4.0 0.00 0.08 0.08 75 1012.5
20260507163014 64 225 2.0 8.0 0.00 0.08 0.08 73 1012.5
20260507161518 65 163 5.0 9.0 0.00 0.08 0.08 73 1012.6
20260507160025 65 207 1.0 12.0 0.00 0.08 0.08 75 1012.5
20260507154527 65 198 3.0 9.0 0.02 0.08 0.08 78 1012.5
20260507153035 64 175 3.0 9.0 0.07 0.08 0.08 80 1012.8
20260507151516 63 153 4.0 8.0 0.08 0.08 0.08 80 1012.8
20260507150022 63 196 2.0 9.0 0.08 0.08 0.08 82 1012.8
20260507144534 64 151 3.0 12.0 0.06 0.06 0.06 79 1012.8
20260507143028 68 169 5.0 23.0 0.01 0.01 0.01 71 1012.6
20260507141529 73 200 6.0 15.0 0.00 0.00 0.00 53 1012.4
20260507140022 74 151 2.0 9.0 0.00 0.00 0.00 48 1012.1
20260507134522 74 193 3.0 8.0 0.00 0.00 0.00 47 1012.1
20260507133028 75 216 4.0 6.0 0.00 0.00 0.00 46 1012.1
20260507131528 76 284 5.0 9.0 0.00 0.00 0.00 45 1012.2
20260507130017 74 120 4.0 11.0 0.00 0.00 0.00 47 1012.3
20260507124530 73 171 3.0 8.0 0.00 0.00 0.00 49 1012.4
20260507123027 72 304 5.0 9.0 0.00 0.00 0.00 51 1012.5
20260507121528 72 190 3.0 12.0 0.00 0.00 0.00 52 1012.5
20260507120026 72 289 3.0 9.0 0.00 0.00 0.00 54 1012.7
20260507114519 71 164 2.0 11.0 0.00 0.00 0.00 58 1012.7
20260507113041 70 298 5.0 10.0 0.00 0.00 0.00 59 1012.9
20260507111537 69 175 2.0 10.0 0.00 0.00 0.00 63 1013.0
20260507110029 68 168 2.0 11.0 0.00 0.00 0.00 65 1013.1
20260507104537 67 223 2.0 11.0 0.00 0.00 0.00 66 1013.1
20260507103026 68 199 2.0 8.0 0.00 0.00 0.00 65 1013.0
20260507101528 69 202 4.0 9.0 0.00 0.00 0.00 65 1013.1
20260507100014 68 185 4.0 10.0 0.00 0.00 0.00 64 1013.1
20260507094518 69 166 5.0 11.0 0.00 0.00 0.00 63 1013.1
20260507093021 69 209 3.0 9.0 0.00 0.00 0.00 61 1012.9
20260507091527 69 142 4.0 7.0 0.00 0.00 0.00 63 1012.8
20260507090009 68 157 3.0 11.0 0.00 0.00 0.00 64 1012.7
20260507084514 67 234 4.0 11.0 0.00 0.00 0.00 64 1012.5
20260507083020 68 186 2.0 10.0 0.00 0.00 0.00 64 1012.5
20260507081534 69 301 2.0 9.0 0.00 0.00 0.00 65 1012.3
20260507080011 68 186 5.0 10.0 0.00 0.00 0.00 64 1012.3
20260507074511 67 167 3.0 12.0 0.00 0.00 0.00 68 1012.2
20260507073016 67 200 3.0 7.0 0.00 0.00 0.00 69 1012.1
20260507071521 67 188 2.0 7.0 0.00 0.00 0.00 70 1012.1
20260507070028 65 173 3.0 8.0 0.00 0.00 0.00 74 1012.1
20260507064512 65 279 2.0 8.0 0.00 0.00 0.00 76 1012.1
20260507063016 64 188 1.0 10.0 0.00 0.00 0.00 76 1012.1
20260507061518 64 194 4.0 7.0 0.00 0.00 0.00 76 1012.2
20260507060026 63 172 2.0 5.0 0.00 0.00 0.00 78 1011.9
20260507054528 62 210 1.0 2.0 0.00 0.00 0.00 81 1012.1
20260507053014 62 192 2.0 3.0 0.00 0.00 0.00 80 1011.8
20260507051518 61 313 0.0 2.0 0.00 0.00 0.00 83 1011.6
20260507050030 60 314 0.0 1.0 0.00 0.00 0.00 83 1011.5
20260507044524 59 315 0.0 2.0 0.00 0.00 0.00 86 1011.5
20260507043029 59 192 0.0 2.0 0.00 0.00 0.00 86 1011.3
20260507041515 58 151 0.0 2.0 0.00 0.00 0.00 86 1011.1
20260507040019 58 152 0.0 2.0 0.00 0.00 0.00 85 1011.0
20260507034531 59 165 0.0 2.0 0.00 0.00 0.00 85 1011.0
20260507033029 59 165 0.0 2.0 0.00 0.00 0.00 82 1011.0
20260507031519 59 137 0.0 2.0 0.00 0.00 0.00 81 1011.0
20260507030021 59 137 0.0 2.0 0.00 0.00 0.00 78 1011.1
20260507024524 59 174 0.0 2.0 0.00 0.00 0.00 78 1010.9
20260507023026 59 192 0.0 2.0 0.00 0.00 0.00 78 1010.8
20260507021526 60 189 0.0 2.0 0.00 0.00 0.00 76 1010.7
20260507020027 60 182 0.0 2.0 0.00 0.00 0.00 74 1010.7
20260507014522 61 182 0.0 2.0 0.00 0.00 0.00 73 1010.9
20260507013026 61 206 0.0 2.0 0.00 0.00 0.00 73 1011.0
20260507011540 61 257 0.0 2.0 0.00 0.00 0.00 73 1010.8
20260507010016 61 153 0.0 3.0 0.00 0.00 0.00 73 1010.8
20260507004519 60 210 0.0 2.0 0.00 0.00 0.00 73 1010.8
20260507003024 60 144 1.0 4.0 0.00 0.00 0.00 74 1010.6
20260507001600 59 225 0.0 2.0 0.00 0.00 0.00 74 1010.5
20260507000016 59 225 0.0 4.0 0.00 0.00 0.00 75 1010.3
20260506234518 58 132 0.0 2.0 0.00 0.00 0.00 76 1010.2
20260506233025 58 360 0.0 2.0 0.00 0.00 0.00 77 1010.1
20260506231525 59 360 0.0 2.0 0.00 0.00 0.00 75 1010.3
20260506230043 60 360 0.0 1.0 0.00 0.00 0.00 74 1010.3
20260506224517 58 262 1.0 3.0 0.00 0.00 0.00 75 1010.3
20260506223029 56 257 1.0 2.0 0.00 0.00 0.00 81 1010.4
20260506221523 55 119 0.0 2.0 0.00 0.00 0.00 83 1010.3